Regional Weather Roundup
Issued by NWS

Home | Current Version | Previous Version | Graphics & Text | Print | Product List | Glossary On
Versions: 1 2 3 4 5 6 7 8 9 10 11 12 13 14 15 16 17 18 19 20 21 22 23 24 25 26 27 28 29 30 31 32 33 34 35 36 37 38 39 40 41 42 43 44 45 46 47 48 49 50
000
ASUS43 KOAX 222202
RWRNE

WEATHER ROUNDUP FOR NEBRASKA
NATIONAL WEATHER SERVICE OMAHA NE
400 PM CST WED FEB 22 2017

NOTES: SATELLITE DATA IS BEING USED TO AUGMENT CLOUD COVER ABOVE
       12000 FEET.
       "FAIR" INDICATES FEW OR NO CLOUDS BELOW 12,000 FEET WITH NO
       SIGNIFICANT WEATHER AND/OR OBSTRUCTIONS TO VISIBILITY.

  * THESE STATIONS DO NOT REPORT WEATHER SUCH AS RAIN...SNOW OR FOG.

NEZ001>004-019>022-054>056-222300-
NEBRASKA PANHANDLE

CITY           SKY/WX    TMP DP  RH WIND       PRES   REMARKS
SCOTTSBLUFF    MOSUNNY   56  15  20 NW13      29.78F
ALLIANCE       SUNNY     55  14  19 NW17G28   29.76F
CHADRON        SUNNY     54  22  28 NW14G22   29.77S
KIMBALL        SUNNY     53  20  27 NW14G22   29.80R
SIDNEY         SUNNY     58  13  17 N15G23    29.78S
$$

NEZ057>060-069>072-079>082-222300-
SOUTHWEST NEBRASKA

CITY           SKY/WX    TMP DP  RH WIND       PRES   REMARKS
NORTH PLATTE   SUNNY     65  19  17 N12G17    29.75S
IMPERIAL       SUNNY     64  18  17 N14       29.76S
LEXINGTON      SUNNY     66  20  17 W12       29.74R
MCCOOK         SUNNY     67  25  20 N8        29.75S
OGALLALA       SUNNY     62  19  18 N9        29.77S
$$

NEZ005>010-023>029-035>040-094-222300-
NORTH CENTRAL NEBRASKA

CITY           SKY/WX    TMP DP  RH WIND       PRES   REMARKS
VALENTINE      CLOUDY    57  22  25 NW17      29.75R
AINSWORTH      SUNNY     57  29  33 NW16G24   29.75R
BROKEN BOW     SUNNY     64  22  20 VRB6G16   29.73R
O`NEILL        SUNNY     61  30  31 NW17G28   29.73S
ORD            SUNNY     64  29  26 N14       29.71R
THEDFORD       MOSUNNY   61  24  23 NW10      29.76R
$$

NEZ041-046>049-061>064-073>077-083>087-222300-
SOUTH CENTRAL NEBRASKA

CITY           SKY/WX    TMP DP  RH WIND       PRES   REMARKS
GRAND ISLAND   SUNNY     69  27  20 NW16G23   29.71R
AURORA         SUNNY     69  26  19 NW16G23   29.70R
HASTINGS       SUNNY     70  24  17 NW13G23   29.71R
HEBRON         CLOUDY    74  29  19 NW9       29.68R
HOLDREGE       SUNNY     67  19  16 NW13      29.73R
KEARNEY *      SUNNY     70  25  18 NW10      29.73R
YORK           SUNNY     70  25  18 NW15G22   29.69R
$$

NEZ011>018-030>034-042>045-222300-
NORTHEAST NEBRASKA

CITY           SKY/WX    TMP DP  RH WIND       PRES   REMARKS
NORFOLK        SUNNY     65  29  25 N21G28    29.68R
ALBION         SUNNY     65  26  22 N16       29.71R
BLAIR          SUNNY     71  39  31 NW15      29.64S
FREMONT        SUNNY     71  32  24 NW20      29.65R
TEKAMAH        SUNNY     69  37  30 NW23G29   29.63S
WAYNE          SUNNY     64  31  28 NW25G31   29.68R
$$

NEZ050>053-065>068-078-088>093-222300-
SOUTHEAST NEBRASKA

CITY           SKY/WX    TMP DP  RH WIND       PRES   REMARKS
LINCOLN        SUNNY     75  31  19 NW13      29.66R
OMAHA EPPLEY   MOSUNNY   72  38  29 N16       29.62S
BEATRICE       CLOUDY    75  36  24 N9        29.65S
FALLS CITY     SUNNY     75  34  22 NW9       29.63R
NEBRASKA CITY  SUNNY     74  28  18 N7        29.64S
PLATTSMOUTH    SUNNY     73  28  19 NW8       29.64R
$$

NEZ044-045-051>053-067-222300-
OMAHA AREA

CITY           SKY/WX    TMP DP  RH WIND       PRES   REMARKS
OMAHA EPPLEY   MOSUNNY   72  38  29 N16       29.62S
BLAIR          SUNNY     71  39  31 NW15      29.64S
FREMONT        SUNNY     71  32  24 NW20      29.65R
MILLARD        SUNNY     74  39  28 NW12G17   29.64R
OFFUTT AFB     SUNNY     72  37  27 NW13      29.63S
PLATTSMOUTH    SUNNY     73  28  19 NW8       29.64R
WAHOO          FAIR      72  29  20 NW12      29.65R
$$



USA.gov is the U.S. government's official web portal to all federal, state and local government web resources and services.